Regional Weather Roundup
Issued by NWS

Home | Current Version | Previous Version | Graphics & Text | Print | Product List | Glossary On
Versions: 1 2 3 4 5 6 7 8 9 10 11 12 13 14 15 16 17 18 19 20 21 22 23 24 25 26 27 28 29 30 31 32 33 34 35 36 37 38 39 40 41 42 43 44 45 46 47 48 49 50
532
ASUS43 KLOT 251403
RWRIL

ILLINOIS REGIONAL WEATHER ROUNDUP
NATIONAL WEATHER SERVICE CHICAGO/ROMEOVILLE IL
900 AM CDT THU MAY 25 2017

NOTE: "FAIR" INDICATES FEW OR NO CLOUDS BELOW 12,000 FEET WITH NO
SIGNIFICANT WEATHER AND/OR OBSTRUCTIONS TO VISIBILITY.

* THESE STATIONS ARE NOT UNDER NWS QUALITY CONTROL. THEY ALSO MAY NOT
  REPORT WEATHER SUCH AS PRECIPITATION OR FOG.

ILZ001-002-007-009-015-016-024-251500-
NORTHWEST ILLINOIS

CITY           SKY/WX    TMP DP  RH WIND       PRES   REMARKS
MOLINE         CLOUDY    56  50  80 N7        29.69R
STERLING*      CLOUDY    55  52  89 N8        29.68R
$$

ILZ003-004-008-010-011-017-018-251500-
NORTH CENTRAL ILLINOIS

CITY           SKY/WX    TMP DP  RH WIND       PRES   REMARKS
ROCKFORD       CLOUDY    56  51  84 N10       29.67R
FREEPORT*      CLOUDY    54  51  90 N8        29.70R
ROCHELLE*      CLOUDY    55  52  89 N12       29.66R
DE KALB*       CLOUDY    54  52  91 N14       29.64S
$$

ILZ005-006-012>014-019>023-251500-
NORTHEAST ILLINOIS

CITY           SKY/WX    TMP DP  RH WIND       PRES   REMARKS
CHICAGO-OHARE  CLOUDY    57  51  80 N13       29.61R
CHICAGO-MIDWAY CLOUDY    57  52  83 N13       29.61R
AURORA         CLOUDY    57  52  83 N15       29.64R
LANSING*       DRIZZLE   53  53 100 N7        29.61R
WAUKEGAN       CLOUDY    55  52  89 N9        29.62R
DUPAGE AIRPORT CLOUDY    56  53  90 N13       29.62R
WHEELING       CLOUDY    56  53  90 N14       29.63R
NORTHERLY ISL    N/A     53  50  89 NW13        N/A
$$

LMZ740>746-251500-
SOUTHERN LAKE MICHIGAN

STATION/POSITION SKY/WX   TEMP    WIND        PRES    VSBY  WAVE
                          AIR SEA DIR/SP/G                  HT/PER
                          (F)     (DEG/KT/KT) (MB)    (MI)  (FT/S)
SOUTHERN BUOY              46 45  360/ 14/ 16 1001.4          3/ 5
WILMETTE HARBOR            50 51                N/A           5/ 5
HARRISON CRIB              52     340/ 22/ 27   N/A
BURNHAM HARBOR             54     330/ 11/ 19   N/A
CALUMET HARBOR             52     320/ 10/ 16 1002.0R
BURNS HARBOR               50     330/ 16/ 21 1002.0R
MICHIGAN CITY              49     330/ 20/ 21   N/A
MICHIGAN CITY 6N           49 52  330/ 16/ 19   N/A           5/ 5
ST. JOSEPH                 53 56   20/ 16/ 19 1001.2R         5/ 5
$$

ILZ025>027-034>036-040-047-049-050-058-095>099-251500-
WEST-CENTRAL ILLINOIS

CITY           SKY/WX    TMP DP  RH WIND       PRES   REMARKS
QUINCY         SUNNY     58  53  84 NW8       29.71S
MACOMB*        CLOUDY    58  55  88 NW9       29.73R
$$

ILZ028>032-037-038-041>044-048-051>054-059>061-251500-
CENTRAL ILLINOIS

CITY           SKY/WX    TMP DP  RH WIND       PRES   REMARKS
BLOOMINGTON    CLOUDY    55  52  89 NW16      29.66R FOG
DECATUR        CLOUDY    57  53  86 NW14      29.65R
PEORIA         CLOUDY    56  52  86 NW8       29.68R
LACON*         CLOUDY    55  53  91 NW6       29.66S
SPRINGFIELD    MOSUNNY   60  55  83 NW9       29.69R
TAYLORVILLE    NOT AVBL
$$

ILZ033-039-045-046-055>057-062-063-251500-
EAST-CENTRAL ILLINOIS

CITY           SKY/WX    TMP DP  RH WIND       PRES   REMARKS
CHAMPAIGN      CLOUDY    56  53  90 NW20      29.62R FOG
MATTOON        CLOUDY    56  54  93 NW15      29.63R
$$

ILZ079-100>102-251500-
SOUTHWEST ILLINOIS

CITY           SKY/WX    TMP DP  RH WIND       PRES   REMARKS
ALTON          MOSUNNY   59  54  82 NW12      29.71R
BELLEVILLE     MOSUNNY   63  54  73 NW10G17   29.72R
CAHOKIA*       SUNNY     64  52  64 NW10      29.72R
SPARTA*        SUNNY     60  53  76 NW10      29.72R
$$

ILZ064>066-069>071-074>076-080>082-084>086-088>090-092>094-251500-
SOUTH-CENTRAL ILLINOIS

CITY           SKY/WX    TMP DP  RH WIND       PRES   REMARKS
CARBONDALE     SUNNY     62  54  74 NW9       29.70R
CAIRO*         SUNNY     63  53  72 W8        29.72R
EFFINGHAM*     CLOUDY    58  55  90 W12       29.66R
MT. VERNON       N/A     61  55  81 W7        29.68R
CENTRALIA*     MOSUNNY   61  55  83 W13G18    29.67S
SALEM*         PTSUNNY   60  54  80 NW7       29.68R
$$

ILZ067-068-072-073-078-083-087-091-251500-
SOUTHEAST ILLINOIS

CITY           SKY/WX    TMP DP  RH WIND       PRES   REMARKS
LAWRENCEVILLE  CLOUDY    61  56  83 NW18      29.61R
HARRISBURG*    PTSUNNY   61  56  82 NW12      29.69R
ROBINSON*      CLOUDY    58  55  88 NW15      29.62R
CARMI*         CLOUDY    59  55  85 NW16      29.65R
$$

ABBREVIATIONS USED IN REMARKS
   TC - TEMPERATURE IN CELSIUS
  WCI - WIND CHILL INDEX
   HX - HEAT INDEX
  VSB - VISIBILITY
$$





USA.gov is the U.S. government's official web portal to all federal, state and local government web resources and services.